Weather History for Rygge, Norway

Change the Weather History Date:

Friday, October 4, 2013

  Actual Average Record
Temperature  
Mean Temperature 44 °F -  
Max Temperature 50 °F 47 °F 64 °F (2005)
Min Temperature 38 °F 37 °F 35 °F (1998)
Degree Days  
Heating Degree Days 21    
Moisture  
Dew Point 40 °F    
Average Humidity 81    
Maximum Humidity 100    
Minimum Humidity 62    
Precipitation  
Precipitation 0.01 in - - ()
Sea Level Pressure  
Sea Level Pressure 30.13 in    
Wind  
Wind Speed 10 mph ()    
Max Wind Speed 16 mph    
Max Gust Speed -    
Visibility 6.5 miles    
Events Rain    
Averages and records for this station are not official NWS values.
T = Trace of Precipitation, MM = Missing Value Source: Averaged Metar Reports

Daily Weather History Graph

Daily Weather History Graph

Search for Another Location

Airport:

Trip Planner

Search our weather history database for the weather conditions in past years. The results will help you decide how hot, cold, wet, or windy it might be!

Date:

Astronomy

Oct. 04, 2013 Rise Set
Actual Time 7:28 AM CEST 6:40 PM CEST
Civil Twilight 6:48 AM CEST 7:21 PM CEST
Nautical Twilight 6:00 AM CEST 8:08 PM CEST
Astronomical Twilight 5:11 AM CEST 8:58 PM CEST
Moon 6:45 AM CEST (10/4) 6:08 PM CEST (10/4)
Length of Visible Light 12h 33m
Length of Day
11h 11m
Waning Crescent, 0% of the Moon is Illuminated
Oct 4
Waning Crescent
Oct 5
New
Oct 12
First Quarter
Oct 19
Full
Oct 27
Last Quarter

Hourly Weather History & Observations

Time (CEST) Temp. Windchill Dew Point Humidity Pressure Visibility Wind Dir Wind Speed Gust Speed Precip Events Conditions
12:20 AM 42.8 °F 36.6 °F 37.4 °F 81% 30.30 in 6.2 mi ESE 11.5 mph - N/A   Partly Cloudy
12:50 AM 41.0 °F 34.7 °F 37.4 °F 87% 30.30 in 6.2 mi ESE 10.4 mph - N/A   Unknown
1:20 AM 41.0 °F 34.7 °F 37.4 °F 87% 30.30 in 6.2 mi ESE 10.4 mph - N/A   Mostly Cloudy
1:50 AM 42.8 °F 37.0 °F 37.4 °F 81% 30.30 in 6.2 mi SE 10.4 mph - N/A   Mostly Cloudy
2:00 AM 43 °F - 38 °F 75% 30.32 in 25 mi SE 11.2 mph - -   Clear
2:20 AM 41.0 °F 33.9 °F 37.4 °F 87% 30.30 in 6.2 mi SE 12.7 mph - N/A   Partly Cloudy
2:50 AM 41.0 °F 34.3 °F 37.4 °F 87% 30.27 in 6.2 mi SE 11.5 mph - N/A   Unknown
3:20 AM 39.2 °F 32.0 °F 35.6 °F 87% 30.27 in 6.2 mi ESE 11.5 mph - N/A   Unknown
3:50 AM 41.0 °F 34.7 °F 37.4 °F 87% 30.27 in 6.2 mi SE 10.4 mph - N/A   Mostly Cloudy
4:20 AM 41.0 °F 34.3 °F 37.4 °F 87% 30.27 in 6.2 mi SE 11.5 mph - N/A   Overcast
4:50 AM 41.0 °F 34.3 °F 37.4 °F 87% 30.24 in 6.2 mi ESE 11.5 mph - N/A   Overcast
5:20 AM 41.0 °F 34.3 °F 37.4 °F 87% 30.24 in 6.2 mi SE 11.5 mph - N/A   Overcast
6:20 AM 41.0 °F 34.7 °F 37.4 °F 87% 30.24 in 6.2 mi SE 10.4 mph - N/A   Mostly Cloudy
6:50 AM 41.0 °F 34.7 °F 37.4 °F 87% 30.21 in 6.2 mi ESE 10.4 mph - N/A   Mostly Cloudy
7:20 AM 42.8 °F 37.0 °F 37.4 °F 81% 30.21 in 6.2 mi SE 10.4 mph - N/A   Mostly Cloudy
7:50 AM 42.8 °F 36.6 °F 37.4 °F 81% 30.21 in 6.2 mi SE 11.5 mph - N/A   Mostly Cloudy
8:00 AM 42 °F - 38 °F 80% 30.22 in 22 mi SE 11.2 mph - -   Clear
8:20 AM 42.8 °F 36.6 °F 37.4 °F 81% 30.18 in 6.2 mi ESE 11.5 mph - N/A   Mostly Cloudy
8:50 AM 42.8 °F 36.2 °F 39.2 °F 87% 30.18 in 6.2 mi ESE 12.7 mph - N/A   Scattered Clouds
9:20 AM 44.6 °F 38.1 °F 39.2 °F 81% 30.18 in 6.2 mi SE 13.8 mph - N/A   Mostly Cloudy
9:50 AM 44.6 °F 39.7 °F 39.2 °F 81% 30.18 in 6.2 mi SE 9.2 mph - N/A   Mostly Cloudy
10:20 AM 44.6 °F 40.2 °F 39.2 °F 81% 30.18 in 6.2 mi SE 8.1 mph - N/A   Mostly Cloudy
10:50 AM 46.4 °F 41.9 °F 41.0 °F 81% 30.15 in 6.2 mi SE 9.2 mph - N/A   Mostly Cloudy
11:20 AM 46.4 °F 42.4 °F 39.2 °F 76% 30.18 in 6.2 mi SSE 8.1 mph - N/A   Mostly Cloudy
11:50 AM 46.4 °F 41.9 °F 41.0 °F 81% 30.15 in 6.2 mi SE 9.2 mph - N/A   Mostly Cloudy
12:20 PM 46.4 °F 40.7 °F 41.0 °F 81% 30.15 in 6.2 mi ESE 12.7 mph - N/A   Mostly Cloudy
12:50 PM 48.2 °F - 41.0 °F 76% 30.12 in 6.2 mi ESE 13.8 mph - N/A   Mostly Cloudy
1:20 PM 48.2 °F - 41.0 °F 76% 30.12 in 6.2 mi ESE 13.8 mph - N/A   Mostly Cloudy
1:50 PM 48.2 °F - 39.2 °F 71% 30.12 in 6.2 mi SE 15.0 mph - N/A   Mostly Cloudy
2:00 PM 49 °F - 40 °F 62% 30.12 in 19 mi SE 15.7 mph - -   Partly Cloudy
2:20 PM 50.0 °F - 39.2 °F 66% 30.09 in 6.2 mi SE 13.8 mph - N/A   Mostly Cloudy
2:50 PM 50.0 °F - 37.4 °F 62% 30.09 in 6.2 mi SE 12.7 mph - N/A   Mostly Cloudy
3:20 PM 50.0 °F - 37.4 °F 62% 30.06 in 6.2 mi SE 10.4 mph - N/A   Mostly Cloudy
3:50 PM 50.0 °F - 37.4 °F 62% 30.06 in 6.2 mi SE 10.4 mph - N/A   Mostly Cloudy
4:20 PM 50.0 °F - 39.2 °F 66% 30.06 in 6.2 mi SE 11.5 mph - N/A   Mostly Cloudy
4:50 PM 50.0 °F - 39.2 °F 66% 30.04 in 6.2 mi ESE 9.2 mph - N/A   Mostly Cloudy
5:20 PM 50.0 °F - 39.2 °F 66% 30.04 in 6.2 mi ESE 8.1 mph - N/A   Light Drizzle
5:50 PM 50.0 °F - 41.0 °F 71% 30.01 in 6.2 mi East 5.8 mph - N/A Rain Light Rain
6:20 PM 48.2 °F - 42.8 °F 82% 30.01 in 6.2 mi ESE 6.9 mph - N/A   Light Drizzle
6:50 PM 48.2 °F - 42.8 °F 82% 30.01 in 6.2 mi ESE 8.1 mph - N/A   Light Drizzle
7:20 PM 46.4 °F 43.5 °F 42.8 °F 87% 30.01 in 6.2 mi ESE 5.8 mph - N/A Rain Light Rain
7:50 PM 46.4 °F 44.3 °F 42.8 °F 87% 30.01 in 6.2 mi East 4.6 mph - N/A   Drizzle
8:00 PM 47 °F - 44 °F 83% 30.02 in 15 mi ESE 6.7 mph - - Rain Light Rain
8:20 PM 48.2 °F - 42.8 °F 82% 30.01 in 6.2 mi SE 9.2 mph - N/A Rain Light Rain
8:50 PM 48.2 °F - 46.4 °F 93% 29.98 in 3.1 mi SE 11.5 mph - N/A Rain Rain
9:20 PM 48.2 °F - 48.2 °F 100% 29.98 in 5.0 mi SSE 10.4 mph - N/A Rain Light Rain
9:50 PM 50.0 °F - 48.2 °F 94% 29.95 in 5.6 mi SSE 10.4 mph - N/A Rain Light Rain
10:20 PM 50.0 °F - 48.2 °F 94% 29.95 in 5.0 mi South 12.7 mph - N/A   Light Drizzle
10:50 PM 50.0 °F - 48.2 °F 94% 29.95 in 6.2 mi South 13.8 mph - N/A   Mostly Cloudy
11:20 PM 50.0 °F - 48.2 °F 94% 29.92 in 6.2 mi South 13.8 mph - N/A   Mostly Cloudy
11:50 PM 50.0 °F - 48.2 °F 94% 29.92 in 6.2 mi South 15.0 mph - N/A   Light Drizzle